Houghton Lake, MI

1:48 AM EDT on March 28, 2017 (GMT -0400)
Roscommon County

Weather History for KHTL - January, 2013

Change the Weather History Date:

Thursday, January 31, 2013

  Actual Average Record
Temperature  
Mean Temperature 19 °F 18 °F  
Max Temperature 24 °F 26 °F 49 °F (2012)
Min Temperature 14 °F 9 °F -23 °F (1994)
Degree Days  
Heating Degree Days 46 47  
Month to date heating degree days 1310 1454  
Since 1 July heating degree days 4119 4612  
Moisture  
Dew Point 11 °F    
Average Humidity 73    
Maximum Humidity 84    
Minimum Humidity 61    
Precipitation  
Precipitation 0.07 in 0.04 in 0.49 in (1988)
Month to date precipitation 3.56 1.51  
Year to date precipitation 3.56 1.51  
Snow  
Snow 3.00 in 0.60 in 5.00 in (1982)
Month to date snowfall 12.6 17.1  
Since 1 July snowfall 33.1 42.1  
Snow Depth 4.00 in    
Sea Level Pressure  
Sea Level Pressure 29.49 in    
Wind  
Wind Speed 16 mph (WNW)    
Max Wind Speed 23 mph    
Max Gust Speed 35 mph    
Visibility 4 miles    
Events Fog , Snow    
T = Trace of Precipitation, MM = Missing Value Source: NWS Daily Summary

Daily Weather History Graph

Daily Weather History Graph

Search for Another Location

Airport or City:

Trip Planner

Search our weather history database for the weather conditions in past years. The results will help you decide how hot, cold, wet, or windy it might be!

Date:

Astronomy

Jan. 31, 2013 Rise Set
Actual Time 7:57 AM EST 5:47 PM EST
Civil Twilight 7:26 AM EST 6:18 PM EST
Nautical Twilight 6:51 AM EST 6:52 PM EST
Astronomical Twilight 6:17 AM EST 7:27 PM EST
Moon 11:02 PM EST (1/31) 9:44 AM EST (1/31)
Length of Visible Light 10h 51m
Length of Day
9h 49m
Waning Gibbous, 80% of the Moon is Illuminated
Jan 31
Waning Gibbous
Feb 3
Last Quarter
Feb 10
New
Feb 17
First Quarter
Feb 25
Full

Hourly Weather History & Observations

Time (EST) Temp. Windchill Dew Point Humidity Pressure Visibility Wind Dir Wind Speed Gust Speed Precip Events Conditions
12:53 AM 21.9 °F 8.2 °F 15.1 °F 75% 29.24 in 9.0 mi NW 16.1 mph - 0.00 in   Overcast
1:53 AM 21.0 °F 6.6 °F 15.1 °F 78% 29.27 in 6.0 mi WNW 17.3 mph 26.5 mph 0.00 in Snow Light Snow
2:36 AM 21.2 °F 7.3 °F 15.8 °F 80% 29.25 in 1.8 mi WNW 16.1 mph 20.7 mph 0.00 in Snow Light Snow
2:39 AM 21.2 °F 8.3 °F 15.8 °F 80% 29.25 in 1.2 mi WNW 13.8 mph - 0.00 in Snow Light Snow
2:42 AM 19.4 °F 6.0 °F 15.8 °F 86% 29.25 in 0.8 mi WNW 13.8 mph - 0.00 in Snow Light Snow
2:53 AM 19.9 °F 4.3 °F 16.0 °F 85% 29.30 in 0.5 mi WNW 19.6 mph 29.9 mph 0.01 in Fog , Snow Snow
3:00 AM 19.4 °F 5.5 °F 15.8 °F 86% 29.26 in 0.5 mi WNW 15.0 mph 29.9 mph 0.00 in Fog , Snow Snow
3:21 AM 19.4 °F 6.6 °F 15.8 °F 86% 29.27 in 1.0 mi WNW 12.7 mph 23.0 mph 0.02 in Snow Light Snow
3:28 AM 19.4 °F 5.5 °F 15.8 °F 86% 29.27 in 1.2 mi WNW 15.0 mph - 0.02 in Snow Light Snow
3:31 AM 19.4 °F 5.5 °F 15.8 °F 86% 29.27 in 0.8 mi WNW 15.0 mph - 0.02 in Snow Light Snow
3:40 AM 19.4 °F 6.0 °F 15.8 °F 86% 29.27 in 0.5 mi WNW 13.8 mph 20.7 mph 0.02 in Fog , Snow Snow
3:47 AM 19.4 °F 6.6 °F 15.8 °F 86% 29.28 in 0.2 mi WNW 12.7 mph 20.7 mph 0.03 in Fog , Snow Heavy Snow
3:53 AM 19.0 °F 6.1 °F 16.0 °F 88% 29.32 in 0.2 mi WNW 12.7 mph 20.7 mph 0.04 in Fog , Snow Heavy Snow
4:10 AM 19.4 °F 6.0 °F 15.8 °F 86% 29.29 in 0.5 mi West 13.8 mph 21.9 mph 0.01 in Fog , Snow Snow
4:17 AM 19.4 °F 4.5 °F 15.8 °F 86% 29.29 in 0.8 mi WNW 17.3 mph 23.0 mph 0.01 in Snow Light Snow
4:20 AM 19.4 °F 4.5 °F 15.8 °F 86% 29.29 in 1.2 mi WNW 17.3 mph 25.3 mph 0.02 in Snow Light Snow
4:31 AM 19.4 °F 5.0 °F 14.0 °F 80% 29.30 in 1.5 mi WNW 16.1 mph 27.6 mph 0.02 in Snow Light Snow
4:53 AM 18.0 °F 1.7 °F 12.9 °F 81% 29.36 in 1.8 mi West 19.6 mph 26.5 mph 0.02 in Snow Light Snow
5:03 AM 17.6 °F 2.7 °F 12.2 °F 79% 29.32 in 2.5 mi West 16.1 mph 25.3 mph 0.00 in Snow Light Snow
5:23 AM 17.6 °F 1.3 °F 12.2 °F 79% 29.33 in 3.0 mi West 19.6 mph 27.6 mph 0.00 in Snow Light Snow
5:53 AM 18.0 °F 3.6 °F 12.0 °F 78% 29.39 in 3.0 mi West 15.0 mph 29.9 mph 0.00 in Snow Light Snow
6:53 AM 17.1 °F 0.1 °F 10.9 °F 77% 29.43 in 5.0 mi West 20.7 mph 28.8 mph 0.00 in Snow Light Snow
7:53 AM 16.0 °F -0.9 °F 10.0 °F 77% 29.47 in 5.0 mi West 19.6 mph 28.8 mph 0.00 in Snow Light Snow
8:34 AM 17.6 °F 1.3 °F 10.4 °F 73% 29.44 in 7.0 mi West 19.6 mph 28.8 mph 0.00 in   Overcast
8:50 AM 17.6 °F 1.3 °F 10.4 °F 73% 29.45 in 5.0 mi West 19.6 mph 27.6 mph 0.00 in Snow Light Snow
8:53 AM 17.1 °F 1.0 °F 10.0 °F 74% 29.50 in 6.0 mi West 18.4 mph 27.6 mph 0.00 in Snow Light Snow
9:45 AM 17.6 °F 1.7 °F 8.6 °F 68% 29.48 in 8.0 mi West 18.4 mph 25.3 mph 0.00 in   Overcast
9:53 AM 17.1 °F 2.0 °F 9.0 °F 71% 29.54 in 10.0 mi WNW 16.1 mph 23.0 mph 0.00 in   Overcast
10:53 AM 18.0 °F 2.6 °F 8.1 °F 65% 29.58 in 8.0 mi WNW 17.3 mph 26.5 mph N/A   Overcast
11:53 AM 18.0 °F 2.2 °F 10.0 °F 71% 29.60 in 2.5 mi West 18.4 mph 27.6 mph 0.00 in Snow Light Snow
12:17 PM 17.6 °F 4.3 °F 10.4 °F 73% 29.55 in 4.0 mi WNW 12.7 mph 25.3 mph 0.00 in Snow Light Snow
12:33 PM 17.6 °F 2.7 °F 8.6 °F 68% 29.55 in 2.5 mi West 16.1 mph 24.2 mph 0.00 in Snow Light Snow
12:39 PM 17.6 °F 1.7 °F 8.6 °F 68% 29.55 in 5.0 mi West 18.4 mph 24.2 mph 0.00 in Snow Light Snow
12:53 PM 19.0 °F 3.2 °F 8.1 °F 62% 29.61 in 7.0 mi West 19.6 mph 28.8 mph 0.00 in Snow Light Snow
1:26 PM 17.6 °F 3.7 °F 10.4 °F 73% 29.56 in 2.5 mi West 13.8 mph 24.2 mph 0.00 in Snow Light Snow
1:35 PM 17.6 °F 3.2 °F 10.4 °F 73% 29.56 in 4.0 mi West 15.0 mph 21.9 mph 0.00 in Snow Light Snow
1:45 PM 17.6 °F 1.7 °F 8.6 °F 68% 29.57 in 6.0 mi West 18.4 mph 24.2 mph 0.00 in   Haze
1:53 PM 18.0 °F 3.1 °F 10.9 °F 74% 29.62 in 3.0 mi West 16.1 mph 23.0 mph 0.00 in Snow Light Snow
2:04 PM 17.6 °F 2.7 °F 10.4 °F 73% 29.57 in 8.0 mi West 16.1 mph - 0.00 in   Mostly Cloudy
2:27 PM 17.6 °F 2.2 °F 8.6 °F 68% 29.58 in 1.8 mi West 17.3 mph 25.3 mph 0.00 in Snow Light Snow
2:36 PM 17.6 °F 3.2 °F 8.6 °F 68% 29.58 in 3.0 mi West 15.0 mph 23.0 mph 0.00 in Snow Light Snow
2:53 PM 18.0 °F 2.2 °F 9.0 °F 68% 29.65 in 7.0 mi West 18.4 mph 26.5 mph 0.00 in   Overcast
3:53 PM 18.0 °F 3.6 °F 7.0 °F 62% 29.68 in 10.0 mi West 15.0 mph 23.0 mph 0.00 in   Overcast
4:53 PM 17.1 °F 3.0 °F 8.1 °F 68% 29.71 in 3.0 mi West 13.8 mph 23.0 mph 0.00 in Snow Light Snow
5:53 PM 15.1 °F -1.1 °F 7.0 °F 70% 29.74 in 10.0 mi WNW 17.3 mph 24.2 mph 0.00 in   Mostly Cloudy
6:53 PM 15.1 °F 1.1 °F 7.0 °F 70% 29.77 in 10.0 mi West 12.7 mph - N/A   Mostly Cloudy
7:53 PM 14.0 °F -0.2 °F 8.1 °F 77% 29.78 in 10.0 mi West 12.7 mph 20.7 mph N/A   Mostly Cloudy
8:53 PM 14.0 °F 0.5 °F 8.1 °F 77% 29.80 in 10.0 mi West 11.5 mph - N/A   Overcast
9:53 PM 14.0 °F 0.5 °F 9.0 °F 80% 29.82 in 5.0 mi WNW 11.5 mph - 0.00 in Snow Light Snow
10:53 PM 15.1 °F 3.3 °F 9.0 °F 77% 29.83 in 7.0 mi WNW 9.2 mph - 0.00 in Snow Light Snow
11:26 PM 14.0 °F 2.0 °F 8.6 °F 79% 29.78 in 3.0 mi WNW 9.2 mph - 0.00 in Snow Light Snow
11:53 PM 14.0 °F 2.9 °F 9.0 °F 80% 29.85 in 4.0 mi WNW 8.1 mph - 0.00 in Snow Light Snow
11:59 PM 14.0 °F 2.0 °F 8.6 °F 79% 29.79 in 2.5 mi West 9.2 mph - 0.00 in Snow Light Snow